Total_Precipitation_Accumulation
0.50 0.80 1.43 1.63 1.51 1.01 0.59 0.38 0.32 0.34 0.29 0.20 0.10 0.09 0.20 0.37 0.57 0.76 0.78 0.66 0.48 0.39 0.31 0.37 0.47 0.38 0.33 0.34 0.40 0.47 0.49 0.52 0.55 0.56 0.56 0.34 0.22 0.20 0.19 0.20 0.22 0.23 0.19 0.21 0.28 0.34 0.33 0.27 0.31
0.53 1.28 1.90 2.08 1.47 0.68 0.52 0.43 0.42 0.37 0.22 0.15 0.07 0.07 0.15 0.15 0.14 0.41 0.87 0.93 0.52 0.45 0.43 0.48 0.59 0.51 0.41 0.42 0.51 0.59 0.65 0.67 0.73 0.71 0.54 0.29 0.24 0.25 0.24 0.26 0.29 0.23 0.16 0.17 0.20 0.26 0.27 0.25 0.30
0.74 1.48 1.81 1.84 0.90 0.55 0.55 0.53 0.50 0.30 0.16 0.13 0.09 0.06 0.10 0.19 0.26 0.44 0.82 0.67 0.46 0.48 0.54 0.68 0.74 0.64 0.57 0.54 0.61 0.72 0.80 0.78 0.81 0.75 0.51 0.34 0.30 0.30 0.31 0.34 0.29 0.20 0.17 0.15 0.14 0.19 0.20 0.20 0.21
0.94 1.52 1.61 1.17 0.71 0.51 0.50 0.56 0.37 0.24 0.13 0.07 0.06 0.07 0.12 0.23 0.32 0.42 0.58 0.60 0.48 0.44 0.46 0.58 0.71 0.64 0.62 0.67 0.72 0.73 0.67 0.69 0.77 0.70 0.54 0.41 0.41 0.40 0.40 0.33 0.24 0.21 0.19 0.16 0.15 0.16 0.15 0.16 0.16
1.19 1.62 1.41 0.94 0.69 0.61 0.44 0.37 0.26 0.23 0.17 0.09 0.05 0.12 0.18 0.29 0.40 0.50 0.63 0.64 0.55 0.50 0.44 0.51 0.60 0.55 0.55 0.66 0.76 0.78 0.68 0.71 0.75 0.71 0.64 0.47 0.45 0.45 0.45 0.36 0.28 0.25 0.23 0.19 0.17 0.16 0.14 0.13 0.14
1.32 1.54 1.41 1.03 0.70 0.62 0.49 0.33 0.22 0.19 0.15 0.13 0.12 0.17 0.23 0.32 0.43 0.56 0.62 0.67 0.65 0.60 0.55 0.51 0.59 0.57 0.56 0.62 0.70 0.74 0.73 0.81 0.79 0.68 0.61 0.56 0.48 0.46 0.43 0.37 0.33 0.28 0.25 0.25 0.20 0.16 0.14 0.14 0.16
1.36 1.44 1.22 0.80 0.68 0.74 0.56 0.33 0.22 0.19 0.15 0.15 0.15 0.21 0.28 0.37 0.41 0.48 0.54 0.63 0.69 0.69 0.66 0.60 0.60 0.62 0.64 0.73 0.73 0.76 0.82 0.94 0.91 0.72 0.64 0.64 0.51 0.43 0.38 0.36 0.35 0.31 0.30 0.30 0.24 0.19 0.17 0.17 0.19
0.89 1.11 1.20 1.02 0.85 0.91 0.56 0.31 0.17 0.11 0.09 0.09 0.09 0.16 0.27 0.36 0.36 0.51 0.60 0.65 0.69 0.66 0.64 0.58 0.58 0.62 0.67 0.76 0.81 0.82 0.82 0.90 0.89 0.78 0.75 0.72 0.55 0.44 0.42 0.37 0.39 0.40 0.40 0.40 0.33 0.26 0.22 0.21 0.20
0.77 0.93 1.26 1.25 0.81 0.68 0.40 0.33 0.15 0.09 0.08 0.08 0.07 0.09 0.18 0.22 0.28 0.43 0.55 0.57 0.60 0.60 0.61 0.59 0.57 0.60 0.67 0.76 0.79 0.88 0.91 0.94 0.87 0.79 0.82 0.73 0.53 0.49 0.50 0.41 0.48 0.54 0.61 0.57 0.47 0.39 0.30 0.24 0.21
0.82 0.97 1.05 0.86 0.53 0.40 0.43 0.40 0.17 0.14 0.13 0.11 0.10 0.14 0.24 0.31 0.37 0.48 0.53 0.60 0.60 0.62 0.64 0.62 0.65 0.64 0.64 0.69 0.93 1.10 0.98 0.89 0.78 0.80 0.77 0.74 0.70 0.68 0.50 0.49 0.59 0.62 0.67 0.64 0.54 0.49 0.36 0.22 0.13
0.68 0.77 0.64 0.54 0.37 0.30 0.32 0.28 0.19 0.18 0.19 0.15 0.16 0.20 0.27 0.39 0.43 0.46 0.51 0.60 0.64 0.63 0.65 0.61 0.59 0.54 0.55 0.69 0.87 1.06 1.11 1.07 1.04 0.90 0.89 0.84 0.76 0.64 0.49 0.46 0.50 0.51 0.56 0.52 0.53 0.48 0.31 0.22 0.16
0.63 0.55 0.50 0.45 0.31 0.30 0.29 0.23 0.21 0.19 0.20 0.18 0.20 0.24 0.28 0.35 0.43 0.47 0.51 0.53 0.53 0.55 0.58 0.55 0.53 0.51 0.49 0.50 0.61 0.76 0.83 0.82 0.84 0.85 0.79 0.80 0.81 0.74 0.62 0.56 0.59 0.60 0.56 0.58 0.61 0.55 0.42 0.33 0.25
0.69 0.54 0.38 0.33 0.30 0.31 0.27 0.24 0.21 0.20 0.18 0.18 0.24 0.30 0.34 0.37 0.41 0.43 0.44 0.47 0.48 0.49 0.51 0.55 0.58 0.55 0.61 0.60 0.57 0.56 0.62 0.67 0.72 0.79 0.72 0.67 0.69 0.72 0.73 0.66 0.70 0.66 0.64 0.63 0.61 0.46 0.42 0.40 0.31
0.59 0.45 0.39 0.35 0.35 0.31 0.29 0.27 0.22 0.22 0.19 0.20 0.25 0.32 0.37 0.40 0.40 0.40 0.40 0.38 0.38 0.46 0.57 0.62 0.58 0.61 0.60 0.56 0.59 0.62 0.62 0.65 0.68 0.72 0.66 0.60 0.59 0.61 0.72 0.70 0.74 0.65 0.67 0.73 0.64 0.55 0.52 0.46 0.35
0.40 0.42 0.46 0.40 0.41 0.38 0.34 0.34 0.24 0.23 0.21 0.24 0.28 0.34 0.39 0.41 0.41 0.42 0.42 0.38 0.36 0.43 0.57 0.68 0.66 0.69 0.65 0.60 0.63 0.66 0.65 0.62 0.65 0.69 0.62 0.57 0.60 0.61 0.72 0.75 0.73 0.70 0.72 0.74 0.76 0.74 0.66 0.53 0.40
0.48 0.55 0.68 0.52 0.49 0.43 0.37 0.39 0.29 0.31 0.28 0.27 0.27 0.30 0.33 0.36 0.38 0.39 0.40 0.39 0.37 0.40 0.51 0.63 0.65 0.70 0.73 0.72 0.72 0.69 0.65 0.66 0.71 0.74 0.70 0.65 0.63 0.66 0.85 0.89 0.77 0.82 0.90 0.90 0.90 0.85 0.76 0.64 0.54
0.59 0.67 0.67 0.57 0.45 0.39 0.38 0.37 0.29 0.29 0.28 0.26 0.23 0.22 0.23 0.25 0.31 0.34 0.35 0.35 0.36 0.40 0.47 0.52 0.58 0.78 0.81 0.77 0.83 0.83 0.80 0.85 0.89 0.91 0.89 0.83 0.80 0.88 1.04 1.10 1.01 0.99 1.11 1.05 0.93 0.92 0.91 0.80 0.74
0.48 0.42 0.40 0.40 0.31 0.31 0.35 0.28 0.26 0.27 0.24 0.23 0.21 0.19 0.18 0.20 0.24 0.26 0.25 0.26 0.28 0.34 0.39 0.46 0.55 0.67 0.79 0.94 1.02 1.10 1.11 1.11 1.22 1.30 1.28 1.11 1.06 1.12 1.26 1.35 1.31 1.26 1.35 1.32 1.17 1.22 1.21 1.07 1.07
0.34 0.24 0.24 0.26 0.22 0.23 0.26 0.24 0.22 0.21 0.21 0.19 0.17 0.15 0.14 0.12 0.14 0.14 0.13 0.17 0.20 0.25 0.31 0.37 0.54 0.70 0.86 0.98 1.12 1.38 1.54 1.64 1.62 1.63 1.70 1.62 1.43 1.50 1.60 1.56 1.77 1.83 1.79 1.78 1.70 1.77 1.77 1.48 1.28
0.26 0.22 0.22 0.20 0.18 0.16 0.15 0.14 0.13 0.13 0.16 0.16 0.15 0.14 0.11 0.09 0.07 0.06 0.07 0.09 0.12 0.16 0.22 0.30 0.44 0.67 0.92 1.14 1.33 1.52 1.83 1.99 1.99 2.05 2.00 1.95 1.83 1.83 1.75 1.81 2.01 2.05 2.14 2.23 2.06 2.13 2.17 1.84 1.53
0.20 0.18 0.17 0.15 0.14 0.12 0.10 0.10 0.10 0.11 0.12 0.12 0.11 0.11 0.10 0.08 0.07 0.06 0.05 0.06 0.07 0.09 0.14 0.21 0.34 0.57 0.88 1.19 1.44 1.63 1.87 2.14 2.23 2.13 2.09 2.12 2.20 2.23 2.11 2.06 2.17 2.17 2.22 2.38 2.41 2.34 2.35 2.21 1.91
0.22 0.15 0.13 0.13 0.13 0.12 0.11 0.16 0.15 0.15 0.16 0.14 0.13 0.13 0.12 0.11 0.10 0.08 0.06 0.06 0.07 0.10 0.13 0.17 0.32 0.48 0.72 0.99 1.31 1.57 1.83 2.14 2.22 2.19 2.16 2.20 2.32 2.40 2.35 2.29 2.34 2.32 2.25 2.31 2.39 2.39 2.53 2.63 2.33
0.14 0.10 0.08 0.08 0.11 0.10 0.09 0.16 0.17 0.17 0.20 0.20 0.20 0.21 0.18 0.15 0.15 0.12 0.10 0.10 0.12 0.15 0.18 0.24 0.38 0.53 0.74 0.98 1.30 1.62 1.81 1.98 2.18 2.19 2.10 2.03 2.08 2.10 2.08 2.19 2.32 2.31 2.27 2.25 2.41 2.53 2.67 2.61 2.50
0.07 0.07 0.07 0.06 0.06 0.06 0.05 0.14 0.23 0.23 0.22 0.20 0.22 0.22 0.17 0.14 0.15 0.17 0.21 0.22 0.22 0.24 0.30 0.38 0.50 0.71 0.87 0.97 1.11 1.28 1.49 1.78 1.92 2.02 2.05 2.05 2.02 1.88 1.82 1.91 2.00 2.08 2.12 2.11 2.13 2.26 2.39 2.53 2.64
0.05 0.07 0.11 0.11 0.13 0.12 0.10 0.20 0.31 0.27 0.22 0.21 0.22 0.20 0.19 0.21 0.25 0.33 0.43 0.40 0.37 0.40 0.49 0.56 0.63 0.73 0.79 0.78 0.86 0.99 1.16 1.37 1.51 1.61 1.80 1.86 1.88 1.81 1.74 1.70 1.78 1.86 1.89 1.98 2.14 2.09 2.10 2.25 2.41
0.03 0.05 0.13 0.16 0.18 0.21 0.26 0.40 0.44 0.35 0.28 0.24 0.21 0.19 0.21 0.29 0.39 0.54 0.65 0.70 0.64 0.62 0.64 0.62 0.63 0.60 0.62 0.66 0.73 0.80 0.86 1.00 1.12 1.20 1.36 1.49 1.48 1.43 1.39 1.42 1.52 1.69 1.78 1.87 1.96 1.97 1.94 1.99 2.05
0.02 0.03 0.07 0.14 0.15 0.21 0.34 0.51 0.51 0.35 0.29 0.27 0.26 0.23 0.29 0.42 0.57 0.73 0.86 0.93 0.87 0.78 0.72 0.68 0.68 0.65 0.58 0.60 0.68 0.75 0.79 0.81 0.84 0.88 0.88 0.97 1.04 1.06 1.09 1.13 1.25 1.44 1.58 1.63 1.70 1.80 1.83 1.85 1.84
0.03 0.05 0.10 0.22 0.33 0.36 0.39 0.52 0.60 0.49 0.38 0.36 0.38 0.44 0.55 0.73 0.80 0.91 0.98 0.97 0.96 1.00 0.93 0.77 0.71 0.71 0.66 0.73 0.74 0.72 0.70 0.68 0.67 0.71 0.76 0.77 0.86 0.96 1.03 1.05 1.10 1.19 1.29 1.41 1.55 1.63 1.71 1.70 1.64
0.09 0.13 0.20 0.32 0.42 0.56 0.68 0.82 0.69 0.57 0.56 0.54 0.56 0.72 0.82 0.92 1.00 1.02 1.08 1.01 0.89 0.89 0.87 0.84 0.79 0.73 0.75 0.80 0.80 0.70 0.67 0.67 0.67 0.65 0.67 0.75 0.84 0.94 0.96 1.01 1.06 1.08 1.16 1.22 1.31 1.41 1.52 1.50 1.48
0.23 0.35 0.45 0.61 0.65 0.63 0.86 1.06 0.78 0.64 0.65 0.66 0.65 0.63 0.65 0.83 0.94 0.98 1.04 0.97 0.81 0.77 0.68 0.71 0.79 0.79 0.85 0.86 0.79 0.71 0.71 0.74 0.79 0.77 0.69 0.71 0.76 0.78 0.88 0.99 0.98 0.99 1.05 1.13 1.22 1.30 1.32 1.34 1.28